User: anonymous   Login
Location: Unspecified
(35.6961°N, 0.0000°E)
Time: 11:58:05
(UTC+00:00)
Language:

Tiros 1 despin weight - Orbit

View from above orbital plane
View from above orbital plane
View from above satellite
View from above satellite

Ground track
Ground track

The orbit data is extracted from the following two-line orbital elements,

1   115U 60002D   19287.48228327 +.00000102 +00000-0 +39178-4 0  9993
2   115 048.1682 021.7348 0035106 240.6475 119.0929 14.83490046155142
Epoch (UTC): 14 October 2019 11:34:29
Eccentricity: 0.0035106
inclination: 48.1682°
perigee height: 594 km
apogee height: 643 km
right ascension of ascending node: 21.7348°
argument of perigee: 240.6475°
revolutions per day: 14.83490046
mean anomaly at epoch: 119.0929°
orbit number at epoch: 15514

The dashed part of the orbit path shows where the satellite is in the earth's shadow,  

DLR